This demonstration page uses our WeatherBlox Daily Observations layout. Learn more.

Left ArrowRight Arrow

38.20091, -84.87328

Hourly Observations for July 24, 2015

Temp ( °F °C ) Dew Point ( °F °C ) Humidity (%) Winds ( mph kmh ) Pressure ( in mb ) Visibility ( mi km ) Precip ( " mm )
12:53 am 00:53 Clear 66 18.9 61 16.1 84 84 NNW 3 6 29.98 1015 10 16 0.00 0.00
1:53 am 01:53 Clear 66 18.9 60 15.6 81 81 Calm 29.97 1015 10 16 0.00 0.00
2:53 am 02:53 Clear 64 17.8 60 15.6 87 87 Calm 29.97 1015 10 16 0.00 0.00
3:53 am 03:53 Clear 63 17.2 60 15.6 90 90 Calm 29.97 1015 10 16 0.00 0.00
4:53 am 04:53 Clear 62 16.7 59 15 90 90 Calm 29.97 1015 10 16 0.00 0.00
5:53 am 05:53 Clear 61 16.1 58 14.4 90 90 Calm 29.99 1016 10 16 0.00 0.00
6:53 am 06:53 Sunny 61 16.1 58 14.4 90 90 NNW 3 6 30.01 1016 10 16 0.00 0.00
7:53 am 07:53 Sunny 65 18.3 60 15.6 84 84 Calm 30.03 1017 10 16 0.00 0.00
8:53 am 08:53 Sunny 71 21.7 61 16.1 71 71 Calm 30.04 1017 10 16 0.00 0.00
9:53 am 09:53 Sunny 74 23.3 62 16.7 67 67 E 3 6 30.03 1017 10 16 0.00 0.00
10:53 am 10:53 Sunny 78 25.6 62 16.7 58 58 Calm 30.04 1017 10 16 0.00 0.00
11:53 am 11:53 Mostly Sunny 81 27.2 59 15 47 47 NE 8 13 30.03 1017 10 16 0.00 0.00
12:53 pm 12:53 Partly Cloudy 83 28.3 62 16.7 49 49 VRB 7 11 30.03 1017 10 16 0.00 0.00
1:53 pm 13:53 Mostly Sunny 83 28.3 60 15.6 46 46 E 7 11 30.02 1017 10 16 0.00 0.00
2:53 pm 14:53 Sunny 84 28.9 59 15 43 43 ENE 5 7 30.00 1016 10 16 0.00 0.00
3:53 pm 15:53 Sunny 85 29.4 61 16.1 45 45 VRB 3 6 29.99 1016 10 16 0.00 0.00
4:53 pm 16:53 Mostly Cloudy 84 28.9 59 15 43 43 NNE 5 7 29.98 1015 10 16 0.00 0.00
5:53 pm 17:53 Mostly Sunny 84 28.9 60 15.6 44 44 VRB 5 7 29.98 1015 10 16 0.00 0.00
6:53 pm 18:53 Sunny 84 28.9 62 16.7 48 48 NNW 6 9 29.96 1015 10 16 0.00 0.00
7:53 pm 19:53 Partly Cloudy 84 28.9 60 15.6 44 44 NE 3 6 29.96 1015 10 16 0.00 0.00
8:53 pm 20:53 Sunny 77 25 62 16.7 60 60 E 3 6 29.95 1014 10 16 0.00 0.00
9:53 pm 21:53 Clear 74 23.3 64 17.8 71 71 Calm 29.96 1015 10 16 0.00 0.00
10:53 pm 22:53 Clear 71 21.7 64 17.8 79 79 Calm 29.97 1015 10 16 0.00 0.00
11:53 pm 23:53 Clear 69 20.6 64 17.8 84 84 Calm 29.98 1015 10 16 0.00 0.00

Powered by AerisWeather